When you browse on this site, cookies collect data to enhance your experience and personalize the content and advertising you see.
Visit our Privacy Policy to learn more. By continuing to use the site, you agree to this use of cookies and data.
  • In Hungary
  • List of Countries
  • For 7 days
  • Water Temperature
  • Satellite Maps
  • Weather Map
  • News
  • Weather Widgets
  • user-avatar
    Login

    Hourly Weather Benito Juarez

    Today, 23 February, Saturday

    Time Temperature Precipitation Wind Pressure Humidity
    00:00 +14°C° 0 mm 2 mps 564 mmHg 46%
    01:00 +13°C° 0 mm 2 mps 564 mmHg 48%
    02:00 +12°C° 0 mm 1 mps 564 mmHg 51%
    03:00 +12°C° 0 mm 1 mps 563 mmHg 53%
    04:00 +11°C° 0 mm 1 mps 563 mmHg 55%
    05:00 +10°C° 0 mm 0 mps 563 mmHg 57%
    06:00 +12°C° 0 mm 1 mps 564 mmHg 53%
    07:00 +14°C° 0 mm 1 mps 565 mmHg 49%
    08:00 +16°C° 0 mm 1 mps 566 mmHg 45%
    09:00 +19°C° 0 mm 1 mps 567 mmHg 39%
    10:00 +21°C° 0 mm 1 mps 568 mmHg 33%
    11:00 +24°C° 0 mm 1 mps 569 mmHg 27%
    12:00 +24°C° 0 mm 1 mps 569 mmHg 26%
    13:00 +25°C° 0 mm 2 mps 569 mmHg 24%
    14:00 +25°C° 0 mm 2 mps 568 mmHg 23%
    15:00 +24°C° 0 mm 2 mps 568 mmHg 27%
    16:00 +23°C° 0 mm 2 mps 567 mmHg 31%
    17:00 +21°C° 0 mm 2 mps 567 mmHg 36%
    18:00 +20°C° 0 mm 2 mps 567 mmHg 41%
    19:00 +18°C° 0 mm 2 mps 567 mmHg 47%
    20:00 +17°C° 0 mm 2 mps 567 mmHg 53%
    21:00 +16°C° 0 mm 2 mps 567 mmHg 56%
    22:00 +15°C° 0 mm 2 mps 567 mmHg 60%
    23:00 +14°C° 0 mm 2 mps 567 mmHg 63%

    Tomorrow, 24 February, Sunday

    Time Temperature Precipitation Wind Pressure Humidity
    00:00 +14°C° 0 mm 2 mps 566 mmHg 65%
    01:00 +13°C° 0 mm 2 mps 566 mmHg 67%
    02:00 +12°C° 0 mm 2 mps 566 mmHg 69%
    03:00 +12°C° 0 mm 2 mps 565 mmHg 74%
    04:00 +10°C° 0 mm 2 mps 565 mmHg 79%
    05:00 +10°C° 0 mm 2 mps 565 mmHg 84%
    06:00 +11°C° 0 mm 3 mps 566 mmHg 79%
    07:00 +12°C° 0 mm 3 mps 567 mmHg 75%
    08:00 +13°C° 0 mm 4 mps 568 mmHg 70%
    09:00 +14°C° 0 mm 4 mps 568 mmHg 65%
    10:00 +15°C° 0 mm 4 mps 569 mmHg 60%
    11:00 +17°C° 0 mm 4 mps 570 mmHg 55%
    12:00 +18°C° 0 mm 4 mps 569 mmHg 55%
    13:00 +18°C° 0 mm 4 mps 569 mmHg 55%
    14:00 +18°C° 0 mm 4 mps 568 mmHg 55%
    15:00 +17°C° 0.1 mm 4 mps 568 mmHg 58%
    16:00 +17°C° 0.1 mm 3 mps 567 mmHg 61%
    17:00 +16°C° 0.1 mm 3 mps 567 mmHg 64%
    18:00 +14°C° 0 mm 3 mps 567 mmHg 69%
    19:00 +13°C° 0 mm 3 mps 567 mmHg 74%
    20:00 +12°C° 0 mm 3 mps 567 mmHg 79%
    21:00 +12°C° 0 mm 2 mps 567 mmHg 80%
    22:00 +12°C° 0 mm 2 mps 567 mmHg 81%
    23:00 +12°C° 0 mm 2 mps 567 mmHg 83%

    Day after tomorrow, 25 February, Monday

    Time Temperature Precipitation Wind Pressure Humidity
    00:00 +10°C° 0 mm 2 mps 567 mmHg 84%
    01:00 +11°C° 0 mm 1 mps 566 mmHg 86%
    02:00 +10°C° 0 mm 1 mps 565 mmHg 88%
    03:00 +10°C° 0 mm 1 mps 565 mmHg 88%
    04:00 +10°C° 0 mm 1 mps 565 mmHg 88%
    05:00 +9°C° 0 mm 1 mps 565 mmHg 88%
    06:00 +11°C° 0 mm 1 mps 566 mmHg 80%
    07:00 +12°C° 0 mm 1 mps 567 mmHg 73%
    08:00 +14°C° 0 mm 2 mps 568 mmHg 65%
    09:00 +16°C° 0 mm 1 mps 569 mmHg 56%
    10:00 +19°C° 0 mm 1 mps 570 mmHg 48%
    11:00 +22°C° 0 mm 1 mps 571 mmHg 39%
    12:00 +22°C° 0 mm 1 mps 571 mmHg 37%
    13:00 +23°C° 0 mm 1 mps 570 mmHg 35%
    14:00 +23°C° 0 mm 2 mps 570 mmHg 34%
    15:00 +21°C° 0.4 mm 2 mps 569 mmHg 38%
    16:00 +20°C° 0.4 mm 2 mps 568 mmHg 43%
    17:00 +19°C° 0.4 mm 2 mps 568 mmHg 48%
    18:00 +19°C° 1.1 mm 1 mps 568 mmHg 55%
    19:00 +18°C° 1.1 mm 1 mps 568 mmHg 62%
    20:00 +15°C° 1.1 mm 1 mps 568 mmHg 70%
    21:00 +15°C° 0.8 mm 1 mps 568 mmHg 72%
    22:00 +14°C° 0.8 mm 0 mps 567 mmHg 75%
    23:00 +13°C° 0.8 mm 0 mps 567 mmHg 77%

    26 February, Tuesday

    Time Temperature Precipitation Wind Pressure Humidity
    00:00 +13°C° 0.1 mm 0 mps 567 mmHg 77%
    01:00 +12°C° 0.1 mm 0 mps 566 mmHg 78%
    02:00 +12°C° 0.1 mm 0 mps 566 mmHg 78%
    03:00 +12°C° 0 mm 0 mps 566 mmHg 78%
    04:00 +11°C° 0 mm 0 mps 566 mmHg 78%
    05:00 +11°C° 0 mm 0 mps 565 mmHg 78%
    06:00 +13°C° 0 mm 0 mps 567 mmHg 72%
    07:00 +14°C° 0 mm 0 mps 568 mmHg 66%
    08:00 +16°C° 0 mm 1 mps 569 mmHg 59%
    09:00 +19°C° 0 mm 1 mps 569 mmHg 52%
    10:00 +21°C° 0 mm 1 mps 570 mmHg 45%
    11:00 +23°C° 0 mm 1 mps 571 mmHg 37%
    12:00 +24°C° 0 mm 1 mps 570 mmHg 35%
    13:00 +24°C° 0 mm 2 mps 570 mmHg 32%
    14:00 +25°C° 0 mm 2 mps 569 mmHg 30%
    15:00 +23°C° 0.2 mm 2 mps 569 mmHg 35%
    16:00 +21°C° 0.2 mm 2 mps 568 mmHg 39%
    17:00 +20°C° 0.2 mm 2 mps 567 mmHg 44%
    18:00 +20°C° 0.1 mm 1 mps 568 mmHg 49%
    19:00 +19°C° 0.1 mm 1 mps 568 mmHg 53%
    20:00 +18°C° 0.1 mm 1 mps 568 mmHg 58%
    21:00 +18°C° 0 mm 1 mps 567 mmHg 61%
    22:00 +16°C° 0 mm 1 mps 567 mmHg 63%
    23:00 +15°C° 0 mm 1 mps 567 mmHg 66%

    27 February, Wednesday

    Time Temperature Precipitation Wind Pressure Humidity
    00:00 +15°C° 0 mm 1 mps 566 mmHg 67%
    01:00 +14°C° 0 mm 1 mps 565 mmHg 67%
    02:00 +13°C° 0 mm 0 mps 565 mmHg 68%
    03:00 +13°C° 0 mm 1 mps 565 mmHg 69%
    04:00 +13°C° 0 mm 1 mps 565 mmHg 69%
    05:00 +13°C° 0 mm 1 mps 565 mmHg 70%
    06:00 +14°C° 0 mm 1 mps 566 mmHg 64%
    07:00 +16°C° 0 mm 1 mps 567 mmHg 58%
    08:00 +18°C° 0 mm 1 mps 568 mmHg 52%
    09:00 +20°C° 0 mm 1 mps 569 mmHg 43%
    10:00 +21°C° 0 mm 2 mps 570 mmHg 34%
    11:00 +24°C° 0 mm 2 mps 570 mmHg 25%
    12:00 +24°C° 0 mm 2 mps 570 mmHg 24%
    13:00 +25°C° 0 mm 3 mps 569 mmHg 23%
    14:00 +26°C° 0 mm 3 mps 569 mmHg 22%
    15:00 +24°C° 0 mm 3 mps 568 mmHg 27%
    16:00 +22°C° 0 mm 3 mps 568 mmHg 32%
    17:00 +21°C° 0 mm 3 mps 567 mmHg 38%
    18:00 +20°C° 0 mm 2 mps 567 mmHg 46%
    19:00 +18°C° 0 mm 2 mps 567 mmHg 53%
    20:00 +18°C° 0 mm 1 mps 567 mmHg 61%
    21:00 +16°C° 0 mm 1 mps 567 mmHg 63%
    22:00 +16°C° 0 mm 1 mps 566 mmHg 66%
    23:00 +15°C° 0 mm 1 mps 566 mmHg 68%

    28 February, Thursday

    Time Temperature Precipitation Wind Pressure Humidity
    00:00 +14°C° 0 mm 1 mps 565 mmHg 68%
    01:00 +13°C° 0 mm 0 mps 565 mmHg 69%
    02:00 +13°C° 0 mm 0 mps 564 mmHg 69%
    03:00 +12°C° 0 mm 0 mps 564 mmHg 71%
    04:00 +12°C° 0 mm 0 mps 564 mmHg 72%
    05:00 +12°C° 0 mm 0 mps 564 mmHg 73%
    06:00 +14°C° 0 mm 1 mps 565 mmHg 68%
    07:00 +15°C° 0 mm 1 mps 566 mmHg 63%
    08:00 +18°C° 0 mm 1 mps 567 mmHg 58%
    09:00 +20°C° 0 mm 1 mps 568 mmHg 48%
    10:00 +21°C° 0 mm 2 mps 568 mmHg 37%
    11:00 +24°C° 0 mm 2 mps 569 mmHg 27%
    12:00 +25°C° 0 mm 2 mps 569 mmHg 25%
    13:00 +25°C° 0 mm 3 mps 568 mmHg 22%
    14:00 +26°C° 0 mm 3 mps 568 mmHg 20%
    15:00 +25°C° 0 mm 3 mps 568 mmHg 24%
    16:00 +24°C° 0 mm 3 mps 567 mmHg 27%
    17:00 +23°C° 0 mm 4 mps 567 mmHg 30%
    18:00 +21°C° 0 mm 3 mps 566 mmHg 36%
    19:00 +19°C° 0 mm 3 mps 566 mmHg 42%
    20:00 +18°C° 0 mm 2 mps 566 mmHg 48%
    21:00 +17°C° 0 mm 2 mps 565 mmHg 51%
    22:00 +16°C° 0 mm 2 mps 565 mmHg 53%
    23:00 +16°C° 0 mm 1 mps 565 mmHg 56%
    Show more